Location: Kapla
(46.2483°N, 15.0094°E)
Time: 03:37:16
(UTC+00:00)

ERS-2 - Visible Passes

Search period start: 15 June 2021 00:00
Search period end: 25 June 2021 00:00
Orbit: 491 x 496 km, 98.5° (Epoch: 14 June)

Date Brightness Start Highest point End Pass type
(mag) Time Alt. Az. Time Alt. Az. Time Alt. Az.
15 Jun 5.3 20:17:07 10° NNW 20:19:03 14° WNW 20:20:57 10° W visible
16 Jun 4.8 19:54:48 10° NNW 19:57:43 23° WNW 20:00:37 10° WSW visible
17 Jun 3.7 19:32:54 10° N 19:36:20 39° WNW 19:39:44 10° SW visible
19 Jun 5.4 20:24:49 10° NW 20:26:24 12° WNW 20:27:57 10° W visible
20 Jun 5.0 20:02:20 10° NNW 20:05:05 20° WNW 20:07:49 10° WSW visible
21 Jun 4.0 19:40:21 10° N 19:43:42 34° WNW 19:47:02 10° SW visible
23 Jun 5.5 20:32:39 10° NW 20:33:42 11° WNW 20:34:47 10° WNW visible
24 Jun 5.1 20:09:51 10° NNW 20:12:24 18° WNW 20:14:58 10° WSW visible
